| time (UTC) | temp C | wind direction | speed KPH | gust KPH | rain 1hr cm | rain 24hr cm | rain mn cm | humidity % | barometer mb |
| 20260506004816 | 13 | 113 | 9.7 | 12.9 | 0.00 | 0.00 | 0.00 | 52 | 1011.8 |
| 20260506003858 | 13 | 83 | 3.2 | 9.7 | 0.00 | 0.00 | 0.00 | 53 | 1011.8 |
| 20260506002816 | 13 | 90 | 6.4 | 12.9 | 0.00 | 0.00 | 0.00 | 53 | 1011.7 |
| 20260506001817 | 13 | 86 | 6.4 | 11.3 | 0.00 | 0.00 | 0.00 | 52 | 1011.9 |
| 20260506000816 | 13 | 132 | 4.8 | 9.7 | 0.00 | 0.00 | 0.00 | 53 | 1011.6 |
| 20260505235816 | 12 | 113 | 9.7 | 16.1 | 0.00 | 0.00 | 0.00 | 53 | 1011.4 |
| 20260505234817 | 12 | 116 | 6.4 | 11.3 | 0.00 | 0.00 | 0.00 | 53 | 1011.5 |
| 20260505233816 | 12 | 134 | 3.2 | 9.7 | 0.00 | 0.00 | 0.00 | 56 | 1011.6 |
| 20260505232816 | 12 | 90 | 11.3 | 12.9 | 0.00 | 0.00 | 0.00 | 57 | 1011.6 |
| 20260505231816 | 11 | 88 | 11.3 | 14.5 | 0.00 | 0.00 | 0.00 | 58 | 1011.4 |
| 20260505230816 | 11 | 69 | 8.0 | 11.3 | 0.00 | 0.00 | 0.00 | 58 | 1011.5 |
| 20260505225817 | 11 | 83 | 4.8 | 11.3 | 0.00 | 0.00 | 0.00 | 58 | 1011.6 |
| 20260505224816 | 11 | 87 | 6.4 | 11.3 | 0.00 | 0.00 | 0.00 | 59 | 1011.6 |
| 20260505223816 | 11 | 80 | 4.8 | 12.9 | 0.00 | 0.00 | 0.00 | 60 | 1011.5 |
| 20260505222816 | 11 | 90 | 8.0 | 14.5 | 0.00 | 0.00 | 0.00 | 58 | 1012.0 |
| 20260505221816 | 11 | 70 | 8.0 | 12.9 | 0.00 | 0.00 | 0.00 | 54 | 1012.0 |
| 20260505220816 | 11 | 108 | 6.4 | 9.7 | 0.00 | 0.00 | 0.00 | 55 | 1012.0 |
| 20260505215816 | 11 | 91 | 8.0 | 14.5 | 0.00 | 0.00 | 0.00 | 54 | 1011.6 |
| 20260505214816 | 11 | 85 | 6.4 | 12.9 | 0.00 | 0.00 | 0.00 | 54 | 1011.6 |
| 20260505213816 | 11 | 131 | 4.8 | 11.3 | 0.00 | 0.00 | 0.00 | 55 | 1011.5 |
| 20260505212836 | 11 | 145 | 4.8 | 17.7 | 0.00 | 0.00 | 0.00 | 56 | 1012.0 |
| 20260505211816 | 11 | 77 | 9.7 | 14.5 | 0.00 | 0.00 | 0.00 | 60 | 1012.1 |
| 20260505210816 | 11 | 78 | 6.4 | 11.3 | 0.00 | 0.00 | 0.00 | 58 | 1012.0 |
| 20260505205816 | 11 | 113 | 6.4 | 11.3 | 0.00 | 0.00 | 0.00 | 58 | 1012.0 |
| 20260505204816 | 11 | 110 | 3.2 | 8.0 | 0.00 | 0.00 | 0.00 | 59 | 1011.7 |
| 20260505203836 | 11 | 125 | 9.7 | 17.7 | 0.00 | 0.00 | 0.00 | 58 | 1011.8 |
| 20260505202816 | 11 | 91 | 4.8 | 14.5 | 0.00 | 0.00 | 0.00 | 59 | 1011.7 |
| 20260505201816 | 11 | 100 | 8.0 | 14.5 | 0.00 | 0.00 | 0.00 | 58 | 1011.7 |
| 20260505200836 | 11 | 109 | 6.4 | 11.3 | 0.00 | 0.00 | 0.00 | 60 | 1011.7 |
| 20260505195816 | 11 | 123 | 8.0 | 16.1 | 0.00 | 0.00 | 0.00 | 61 | 1011.9 |
| 20260505194816 | 10 | 142 | 11.3 | 16.1 | 0.00 | 0.00 | 0.00 | 62 | 1011.7 |
| 20260505193816 | 10 | 108 | 14.5 | 20.9 | 0.00 | 0.00 | 0.00 | 63 | 1011.7 |
| 20260505192816 | 10 | 106 | 11.3 | 17.7 | 0.00 | 0.00 | 0.00 | 62 | 1011.5 |
| 20260505191816 | 10 | 119 | 6.4 | 14.5 | 0.00 | 0.00 | 0.00 | 64 | 1011.7 |
| 20260505190816 | 10 | 144 | 11.3 | 17.7 | 0.00 | 0.00 | 0.00 | 65 | 1011.5 |
| 20260505185816 | 10 | 113 | 11.3 | 20.9 | 0.00 | 0.00 | 0.00 | 66 | 1011.2 |
| 20260505184816 | 10 | 120 | 14.5 | 17.7 | 0.00 | 0.00 | 0.00 | 67 | 1011.3 |
| 20260505183816 | 10 | 109 | 11.3 | 17.7 | 0.00 | 0.00 | 0.00 | 69 | 1011.3 |
| 20260505182816 | 10 | 159 | 14.5 | 19.3 | 0.00 | 0.00 | 0.00 | 69 | 1011.2 |
| 20260505181816 | 9 | 146 | 6.4 | 12.9 | 0.00 | 0.00 | 0.00 | 69 | 1011.2 |
| 20260505180836 | 9 | 107 | 3.2 | 16.1 | 0.00 | 0.00 | 0.00 | 69 | 1011.2 |
| 20260505175836 | 9 | 118 | 6.4 | 14.5 | 0.00 | 0.00 | 0.00 | 70 | 1011.3 |
| 20260505174816 | 9 | 125 | 12.9 | 19.3 | 0.00 | 0.00 | 0.00 | 71 | 1011.3 |
| 20260505173816 | 9 | 133 | 11.3 | 19.3 | 0.00 | 0.00 | 0.00 | 72 | 1011.3 |
| 20260505172816 | 8 | 152 | 16.1 | 22.5 | 0.00 | 0.00 | 0.00 | 73 | 1011.2 |
| 20260505171816 | 8 | 125 | 6.4 | 17.7 | 0.00 | 0.00 | 0.00 | 74 | 1011.2 |
| 20260505170816 | 8 | 122 | 6.4 | 14.5 | 0.00 | 0.00 | 0.00 | 76 | 1011.3 |
| 20260505165816 | 8 | 117 | 6.4 | 12.9 | 0.00 | 0.00 | 0.00 | 75 | 1011.2 |
| 20260505164816 | 8 | 91 | 8.0 | 12.9 | 0.00 | 0.00 | 0.00 | 75 | 1011.5 |
| 20260505163816 | 8 | 98 | 12.9 | 16.1 | 0.00 | 0.00 | 0.00 | 75 | 1011.5 |
| 20260505162836 | 8 | 84 | 14.5 | 20.9 | 0.00 | 0.00 | 0.00 | 75 | 1011.4 |
| 20260505161836 | 8 | 128 | 4.8 | 14.5 | 0.00 | 0.00 | 0.00 | 76 | 1011.3 |
| 20260505160815 | 8 | 113 | 6.4 | 19.3 | 0.00 | 0.00 | 0.00 | 78 | 1011.3 |
| 20260505152815 | 8 | 105 | 6.4 | 14.5 | 0.00 | 0.00 | 0.00 | 75 | 1011.4 |
| 20260505151815 | 8 | 110 | 14.5 | 22.5 | 0.00 | 0.00 | 0.00 | 74 | 1011.4 |
| 20260505150816 | 8 | 97 | 11.3 | 14.5 | 0.00 | 0.00 | 0.00 | 73 | 1011.3 |
| 20260505124835 | 11 | 250 | 6.4 | 11.3 | 0.00 | 0.00 | 0.00 | 73 | 1011.3 |
| 20260505123815 | 11 | 244 | 8.0 | 11.3 | 0.00 | 0.00 | 0.00 | 75 | 1011.1 |
| 20260505122816 | 11 | 215 | 1.6 | 3.2 | 0.00 | 0.00 | 0.00 | 75 | 1011.1 |
| 20260505121815 | 11 | 215 | 0.0 | 1.6 | 0.00 | 0.00 | 0.00 | 75 | 1011.1 |
| 20260505120815 | 11 | 215 | 1.6 | 3.2 | 0.00 | 0.00 | 0.00 | 74 | 1011.1 |
| 20260505115815 | 11 | 182 | 1.6 | 4.8 | 0.00 | 0.00 | 0.00 | 74 | 1011.3 |
| 20260505114815 | 11 | 154 | 11.3 | 19.3 | 0.00 | 0.00 | 0.00 | 73 | 1011.3 |
| 20260505113815 | 11 | 141 | 3.2 | 8.0 | 0.00 | 0.00 | 0.00 | 72 | 1011.1 |
| 20260505112815 | 11 | 263 | 4.8 | 9.7 | 0.00 | 0.00 | 0.00 | 72 | 1010.9 |
| 20260505111837 | 11 | 269 | 1.6 | 4.8 | 0.00 | 0.00 | 0.00 | 71 | 1010.8 |
| 20260505110837 | 11 | 269 | 1.6 | 1.6 | 0.00 | 0.00 | 0.00 | 70 | 1010.7 |
| 20260505101817 | 11 | 269 | 0.0 | 3.2 | 0.00 | 0.00 | 0.00 | 65 | 1011.1 |
| 20260505100817 | 11 | 269 | 1.6 | 6.4 | 0.00 | 0.00 | 0.00 | 64 | 1011.1 |
| 20260505095817 | 11 | 245 | 6.4 | 11.3 | 0.00 | 0.00 | 0.00 | 63 | 1010.8 |
| 20260505094817 | 11 | 148 | 1.6 | 3.2 | 0.00 | 0.00 | 0.00 | 67 | 1010.9 |
| 20260505093817 | 11 | 148 | 3.2 | 4.8 | 0.00 | 0.00 | 0.00 | 68 | 1010.7 |
| 20260505092815 | 11 | 148 | 0.0 | 1.6 | 0.00 | 0.00 | 0.00 | 69 | 1010.7 |
| 20260505091817 | 11 | 0.0 | 0.0 | 0.00 | 0.00 | 0.00 | 70 | 1010.7 | |
| 20260505090816 | 11 | 0.0 | 0.0 | 0.00 | 0.00 | 0.00 | 70 | 1010.8 | |
| 20260505085816 | 11 | 148 | 0.0 | 6.4 | 0.00 | 0.00 | 0.00 | 70 | 1011.5 |
| 20260505084817 | 11 | 144 | 3.2 | 11.3 | 0.00 | 0.00 | 0.00 | 71 | 1011.6 |
| 20260505083817 | 11 | 124 | 3.2 | 6.4 | 0.00 | 0.00 | 0.00 | 71 | 1011.6 |
| 20260505082817 | 11 | 139 | 1.6 | 6.4 | 0.00 | 0.00 | 0.00 | 71 | 1011.7 |
| 20260505081816 | 11 | 134 | 3.2 | 6.4 | 0.00 | 0.00 | 0.00 | 70 | 1011.4 |
| 20260505080817 | 11 | 125 | 3.2 | 4.8 | 0.00 | 0.00 | 0.00 | 70 | 1011.5 |
| 20260505075817 | 11 | 134 | 1.6 | 3.2 | 0.00 | 0.00 | 0.00 | 70 | 1012.1 |
| 20260505074816 | 12 | 160 | 4.8 | 8.0 | 0.00 | 0.00 | 0.00 | 69 | 1012.1 |
| 20260505073817 | 12 | 129 | 4.8 | 11.3 | 0.00 | 0.00 | 0.00 | 68 | 1012.3 |
| 20260505072818 | 12 | 156 | 8.0 | 11.3 | 0.00 | 0.00 | 0.00 | 64 | 1012.8 |
| 20260505071816 | 12 | 175 | 3.2 | 6.4 | 0.00 | 0.00 | 0.00 | 63 | 1012.4 |
| 20260505070816 | 11 | 142 | 8.0 | 16.1 | 0.00 | 0.00 | 0.00 | 65 | 1012.5 |
| 20260505065817 | 11 | 164 | 1.6 | 6.4 | 0.00 | 0.00 | 0.00 | 66 | 1012.5 |
| 20260505064816 | 11 | 239 | 1.6 | 3.2 | 0.00 | 0.00 | 0.00 | 66 | 1012.4 |
| 20260505063816 | 11 | 199 | 6.4 | 9.7 | 0.00 | 0.00 | 0.00 | 65 | 1012.4 |
| 20260505062816 | 11 | 219 | 3.2 | 16.1 | 0.00 | 0.00 | 0.00 | 64 | 1011.9 |
| 20260505061816 | 11 | 190 | 8.0 | 17.7 | 0.00 | 0.00 | 0.00 | 64 | 1012.0 |
| 20260505060836 | 11 | 194 | 12.9 | 22.5 | 0.00 | 0.00 | 0.00 | 64 | 1012.1 |
| 20260505055815 | 11 | 235 | 16.1 | 22.5 | 0.00 | 0.00 | 0.00 | 65 | 1011.7 |
| 20260505054816 | 11 | 200 | 17.7 | 29.0 | 0.00 | 0.00 | 0.00 | 67 | 1011.6 |
| 20260505053816 | 11 | 203 | 17.7 | 27.4 | 0.00 | 0.00 | 0.00 | 69 | 1011.8 |
| 20260505052815 | 11 | 201 | 14.5 | 25.7 | 0.00 | 0.00 | 0.00 | 69 | 1011.8 |
| 20260505051856 | 11 | 209 | 12.9 | 22.5 | 0.00 | 0.00 | 0.00 | 69 | 1011.7 |
| 20260505050815 | 12 | 213 | 16.1 | 30.6 | 0.00 | 0.00 | 0.00 | 69 | 1011.9 |
| 20260505040815 | 13 | 233 | 12.9 | 25.7 | 0.00 | 0.00 | 0.00 | 57 | 1011.0 |
| 20260505035815 | 14 | 194 | 12.9 | 20.9 | 0.00 | 0.00 | 0.00 | 52 | 1010.9 |
| 20260505034815 | 15 | 194 | 9.7 | 16.1 | 0.00 | 0.00 | 0.00 | 48 | 1010.6 |
| 20260505033815 | 15 | 185 | 4.8 | 11.3 | 0.00 | 0.00 | 0.00 | 47 | 1010.3 |
| 20260505032815 | 15 | 240 | 8.0 | 14.5 | 0.00 | 0.00 | 0.00 | 47 | 1010.0 |
| 20260505031815 | 15 | 215 | 6.4 | 11.3 | 0.00 | 0.00 | 0.00 | 47 | 1009.9 |
| 20260505030815 | 15 | 245 | 4.8 | 12.9 | 0.00 | 0.00 | 0.00 | 49 | 1010.1 |
| 20260505025815 | 15 | 214 | 9.7 | 16.1 | 0.00 | 0.00 | 0.00 | 52 | 1009.5 |
| 20260505024815 | 16 | 241 | 16.1 | 27.4 | 0.00 | 0.00 | 0.00 | 46 | 1009.7 |
| 20260505023815 | 16 | 177 | 4.8 | 9.7 | 0.00 | 0.00 | 0.00 | 44 | 1009.4 |
| 20260505022815 | 16 | 158 | 4.8 | 12.9 | 0.00 | 0.00 | 0.00 | 45 | 1008.9 |
| 20260505021835 | 16 | 130 | 6.4 | 11.3 | 0.00 | 0.00 | 0.00 | 45 | 1008.9 |
| 20260505020835 | 16 | 157 | 11.3 | 14.5 | 0.00 | 0.00 | 0.00 | 45 | 1008.9 |
| 20260505015815 | 16 | 144 | 11.3 | 19.3 | 0.00 | 0.00 | 0.00 | 45 | 1008.7 |
| 20260505014815 | 16 | 127 | 6.4 | 16.1 | 0.00 | 0.00 | 0.00 | 47 | 1008.9 |
| 20260505013815 | 17 | 136 | 11.3 | 22.5 | 0.00 | 0.00 | 0.00 | 47 | 1008.8 |
| 20260505012815 | 17 | 131 | 11.3 | 19.3 | 0.00 | 0.00 | 0.00 | 45 | 1008.8 |
| 20260505011817 | 18 | 106 | 16.1 | 20.9 | 0.00 | 0.00 | 0.00 | 42 | 1009.0 |
| 20260505010835 | 18 | 174 | 6.4 | 11.3 | 0.00 | 0.00 | 0.00 | 35 | 1008.7 |
| 20260505005817 | 18 | 170 | 3.2 | 6.4 | 0.00 | 0.00 | 0.00 | 33 | 1008.7 |